Location: mio
(44.4089°N, 12.2048°E)
Time: 20:43:46
(UTC+01:00)

ISS - Visible Passes

Search period start: 05 December 2019 00:00
Search period end: 15 December 2019 00:00
Orbit: 412 x 421 km, 51.6° (Epoch: 05 December)

Date Brightness Start Highest point End Pass type
(mag) Time Alt. Az. Time Alt. Az. Time Alt. Az.
05 Dec -2.6 17:39:11 10° NW 17:42:09 28° NNE 17:43:34 20° NE visible
05 Dec -0.8 19:15:48 10° WNW 19:16:29 15° WNW 19:16:29 15° WNW visible
06 Dec -3.4 18:27:21 10° NW 18:30:12 54° NNW 18:30:12 54° NNW visible
07 Dec -3.3 17:38:55 10° NW 17:42:09 43° NNE 17:44:03 21° E visible
07 Dec -0.9 19:15:46 10° WNW 19:16:59 19° W 19:16:59 19° W visible
08 Dec -3.2 18:27:09 10° WNW 18:30:27 55° SW 18:31:02 46° S visible
09 Dec -3.8 17:38:36 10° WNW 17:41:59 89° SSW 17:45:19 10° ESE visible
09 Dec -0.7 19:16:35 10° WSW 19:18:16 13° SW 19:18:18 13° SW visible
10 Dec -1.3 18:27:18 10° W 18:29:57 22° SW 18:32:35 10° S visible
11 Dec -2.1 17:38:28 10° WNW 17:41:34 35° SW 17:44:39 10° SSE visible
13 Dec -0.5 17:39:03 10° W 17:40:55 14° SW 17:42:47 10° SSW visible
